This is the latest recevied weather packets stored in our database for station/object N0MR. If no packets are shown the sender has not sent any weather packets the latest 10 day(s).
| Time | Temp. | Humidity | Pressure | Rain* | Wind** | Luminosity | Snow |
|---|---|---|---|---|---|---|---|
| 1788447395 | 17.78° C | 86% | 1013.4 hPa | 0 mm | - | - | - |
| 1788446796 | 17.78° C | 86% | 1013.4 hPa | 0 mm | - | - | - |
| 1788446193 | 16.67° C | 90% | 1013.5 hPa | 0 mm | - | - | - |
| 1788445616 | 16.67° C | 90% | 1013.5 hPa | 0 mm | - | - | - |
| 1788444994 | 16.11° C | 97% | 1013.5 hPa | 0 mm | - | - | - |
| 1788444394 | 16.11° C | 97% | 1013.5 hPa | 0 mm | - | - | - |
| 1788443798 | 15° C | 97% | 1013.6 hPa | 0 mm | - | - | - |
| 1788437199 | 11.67° C | 96% | 1013 hPa | 0 mm | - | - | - |
| 1788436595 | 11.67° C | 96% | 1013 hPa | 0 mm | - | - | - |
| 1788410797 | 14.44° C | 90% | 1012.9 hPa | 0 mm | - | - | - |
| 1788410207 | 14.44° C | 90% | 1012.9 hPa | 0 mm | - | - | - |
| 1788409598 | 14.44° C | 90% | 1012.7 hPa | 0 mm | - | - | - |
| 1788408997 | 15° C | 89% | 1012.6 hPa | 0 mm | - | - | - |
| 1788408398 | 15° C | 89% | 1012.6 hPa | 0 mm | - | - | - |
| 1788407798 | 15° C | 89% | 1012.6 hPa | 0 mm | - | - | - |
| 1788407198 | 15° C | 89% | 1012.6 hPa | 0 mm | - | - | - |
| 1788406597 | 15.56° C | 88% | 1012.5 hPa | 0 mm | - | - | - |
| 1788405998 | 15.56° C | 88% | 1012.5 hPa | 0 mm | - | - | - |
| 1788405397 | 15.56° C | 87% | 1012.4 hPa | 0 mm | - | - | - |
| 1788404802 | 15.56° C | 87% | 1012.4 hPa | 0 mm | - | - | - |
| 1788404198 | 15.56° C | 87% | 1012.4 hPa | 0 mm | - | - | - |
| 1788403599 | 15.56° C | 87% | 1012.4 hPa | 0 mm | - | - | - |
| 1788402998 | 15.56° C | 86% | 1012.3 hPa | 0 mm | - | - | - |
| 1788402398 | 15.56° C | 86% | 1012.3 hPa | 0 mm | - | - | - |
| 1788401798 | 16.11° C | 85% | 1012.2 hPa | 0 mm | - | - | - |
* Rain latest hour (hover to see other rain measurements)
** Current wind speed in m/s (hover to see current wind gust speed)